Location: *
(48.8667°N, 2.3331°E)
Time: 06:19:23
(UTC+00:00)

X-37B - Visible Passes

Search period start: 26 February 2021 00:00
Search period end: 08 March 2021 00:00
Orbit: 383 x 391 km, 45.0° (Epoch: 10 February)

Date Brightness Start Highest point End Pass type
(mag) Time Alt. Az. Time Alt. Az. Time Alt. Az.
26 Feb 3.2 04:07:49 18° ESE 04:07:49 18° ESE 04:08:53 10° ESE visible
26 Feb 1.9 05:40:06 15° WSW 05:42:09 27° SSW 05:44:54 10° SE visible
27 Feb 1.7 04:44:21 32° S 04:44:21 32° S 04:46:50 10° SE visible
28 Feb 3.9 03:48:38 10° ESE 03:48:38 10° ESE 03:48:39 10° ESE visible
28 Feb 2.3 05:20:56 18° SW 05:21:52 20° SSW 05:24:16 10° SSE visible
01 Mar 2.9 04:25:18 18° SSE 04:25:18 18° SSE 04:26:25 10° SE visible
02 Mar 2.9 05:02:03 13° SSW 05:02:03 13° SSW 05:03:14 10° S visible
